[[{"header":{"parameterUnit":"m.s-1","parameterCategory":1,"la1":30.2991,"la2":30.254,"lo1":-89.0895,"lo2":-89.0444,"dy":0.0017,"dx":0.0017,"nx":28,"ny":28,"refTime":"2025-06-08T03:00:00:Z","depth":0,"parameterNumber":2,"parameterNumberName":"U-component_of_WINDS"},"data":[0,0,0,0,0,0,0,0,0,0,0,0,0,0,0,0,0,0,0,0,0,0,0,0,0,0,0,0,0,0,0,0,0,0,0,0,0,0,0,0,0,0,0,0,0,0,0,0,0,0,0,0,0,0,0,0,0,0,2.8326,2.8327,0,2.8384,2.8384,2.8385,2.8371,2.837,2.8369,2.8368,2.8432,2.8435,2.8437,0,0,0,0,0,0,0,0,0,0,0,0,0,2.8213,2.8215,2.8326,2.8327,2.8328,2.8383,2.8384,2.8385,2.8371,2.837,2.8368,2.8367,2.8431,2.8434,2.8438,0,0,0,0,0,0,0,0,0,0,0,0,0,2.8265,2.8216,2.8326,2.8327,2.8328,2.8383,2.8384,2.8385,2.8371,2.837,2.8368,2.8366,2.843,2.8434,2.8438,2.8498,0,0,2.8451,2.8453,0,0,0,0,0,0,0,0,2.8262,2.827,2.8327,2.8327,2.8328,2.8368,2.8368,2.8423,2.8372,2.8355,2.8368,2.8366,2.8413,2.8418,2.8433,2.8501,2.8503,2.8451,2.8454,2.8455,2.8457,0,0,0,0,0,0,0,2.8259,2.8267,2.8349,2.8327,2.8329,2.8328,2.8333,2.8378,2.8393,2.8356,2.8356,2.8362,2.8413,2.8429,2.8434,2.8504,2.8451,2.8455,2.8457,2.8459,2.8628,2.863,0,0,0,0,0,0,2.8254,2.8264,2.8347,2.8351,2.829,2.8331,2.8337,2.8357,2.8392,2.8396,2.8364,2.8361,2.8422,2.8429,2.8436,2.851,2.8455,2.8459,2.8462,2.8626,2.8628,2.863,0,0,0,0,0,0,2.8251,2.8261,2.8345,2.8307,2.8318,2.8335,2.8357,2.8359,2.8375,2.8398,2.8401,2.8377,2.8421,2.843,2.8483,2.8512,2.8461,2.8465,2.8623,2.8626,2.8629,2.8656,0,0,0,0,0,0,2.8248,2.826,2.8281,2.8308,2.832,2.8388,2.8359,2.8362,2.8381,2.8379,2.8411,2.8414,2.8421,2.8477,2.8487,2.8517,2.8468,2.8621,2.8625,2.8628,2.8653,2.866,2.8666,0,0,0,0,0,2.8244,2.8287,2.8282,2.8292,2.8346,2.839,2.8397,2.8402,2.8384,2.8406,2.8421,2.8413,2.8507,2.8482,2.8494,2.8525,2.8619,2.8624,2.8628,2.865,2.8658,2.8666,0,0,0,0,0,0,2.8264,2.829,2.8285,2.8337,2.8361,2.8387,2.8415,2.841,2.8441,2.8438,2.8444,2.8452,2.8506,2.8521,2.8492,2.8586,2.8561,2.8568,2.8574,2.8582,2.8588,2.8584,2.8472,0,0,0,0,0,2.8274,2.8305,2.8328,2.8372,2.8384,2.8398,2.8417,2.8419,2.8445,2.8455,2.8474,2.8501,2.8537,2.8561,2.8595,2.8656,2.8664,2.8683,2.869,2.8695,2.8701,2.8737,2.8746,2.8645,2.8645,2.8645,0,0,2.8296,2.8314,2.8334,2.8377,2.8395,2.843,2.8406,2.8444,2.847,2.8462,2.8512,2.8527,2.8558,2.8616,2.8642,2.863,2.8731,2.8701,2.8705,2.8708,2.8743,2.8752,2.8761,2.8648,2.8648,2.8647,0,0,2.8354,2.837,2.8409,2.8429,2.8457,2.8467,2.8477,2.8504,2.8513,2.8564,2.8558,2.8592,2.8653,2.8676,2.8696,2.8766,2.8761,2.8778,2.8811,2.8846,2.8854,2.8861,2.8888,2.8897,2.8784,2.8784,2.8784,0,2.8378,2.8427,2.8431,2.8469,2.849,2.8483,2.8525,2.8544,2.8583,2.8599,2.8584,2.8662,2.8683,2.8747,2.8764,2.878,2.8793,2.8773,2.8852,2.886,2.8866,2.8892,2.8902,2.8786,2.8785,2.8785,2.8785,0,2.8457,2.8492,2.8521,2.8558,2.8582,2.8622,2.8634,2.8658,2.8659,2.8671,2.8724,2.8749,2.8789,2.8805,2.8806,2.887,2.8862,2.885,2.8825,2.8878,2.8902,2.8912,2.8788,2.8787,2.8787,2.8786,0,0,2.8526,2.8566,2.8576,2.8594,2.8627,2.8655,2.8697,2.8735,2.8756,2.8785,2.8821,2.8875,2.8865,2.8887,2.8892,2.8923,2.898,2.8908,2.8909,2.8921,2.9054,2.9063,2.9074,2.8977,2.8979,2.898,2.9052,0,2.8587,2.8657,2.8663,2.8728,2.8762,2.8758,2.8795,2.882,2.8834,2.8867,2.8883,2.892,2.8904,2.8918,2.8948,2.8966,2.9007,2.8961,2.9013,2.9015,2.9005,2.9086,2.9094,2.916,2.9061,2.9063,2.9064,0,2.8667,2.8696,2.8764,2.8794,2.8809,2.8841,2.8878,2.8909,2.894,2.8948,2.8974,2.8976,2.9022,2.8996,2.9061,2.903,2.9052,2.9065,2.9068,2.9072,2.9042,2.9094,2.9182,2.9192,2.9079,2.9077,2.9076,0,2.8712,2.8769,2.8817,2.8833,2.8869,2.8892,2.8909,2.8938,2.8961,2.8995,2.901,2.9049,2.9071,2.9103,2.9116,2.9095,2.9181,2.9155,2.9191,2.9191,2.9208,2.9207,2.9301,2.9223,2.9223,2.9223,2.9222,0,2.8779,2.8821,2.8838,2.8868,2.8916,2.8925,2.8973,2.8989,2.9015,2.905,2.905,2.9084,2.9099,2.9136,2.9147,2.92,2.921,2.922,2.9222,2.9219,2.9218,2.9234,2.9229,2.9225,2.9225,2.9224,2.9224,0,2.8836,2.8849,2.8902,2.8933,2.8942,2.8976,2.9003,2.9034,2.9048,2.9092,2.9104,2.9126,2.917,2.9186,2.924,2.9248,2.931,2.9309,2.9299,2.9299,2.9334,2.9331,2.9442,2.9457,2.9368,2.9369,2.937,0,2.8878,2.891,2.8944,2.8967,2.8984,2.9021,2.9045,2.9056,2.9082,2.9121,2.9148,2.9191,2.9225,2.9296,2.9319,2.9361,2.9361,2.9397,2.9367,2.9365,2.9363,2.936,2.9364,2.9402,2.9403,2.9404,2.9405,0,2.8951,2.8957,2.899,2.9027,2.9055,2.9085,2.9115,2.9134,2.915,2.918,2.9224,2.9251,2.9306,2.935,2.9394,2.9414,2.9413,2.9414,2.9425,2.9422,2.9415,2.942,2.9314,2.9411,2.9411,2.941,2.941,2.941,2.9002,2.9031,2.906,2.9099,2.9122,2.915,2.9181,2.9199,2.9235,2.9279,2.9285,2.9333,2.9367,2.9425,2.9448,2.9487,2.9478,2.9493,2.9497,2.95,2.9503,2.9409,2.9495,2.9495,2.9495,2.9495,2.9495,0,2.9076,2.9095,2.913,2.9171,2.9202,2.9198,2.9231,2.9258,2.9299,2.933,2.9364,2.9417,2.946,2.9487,2.9532,2.9559,2.956,2.957,2.9568,2.9573,2.9508,2.9495,2.9569,2.9569,2.9569,2.9569,2.9569,2.9569,2.9117,2.9167,2.9177,2.924,2.9259,2.9305,2.9324,2.9351,2.9376,2.9434,2.9469,2.9486,2.9517,2.9564,2.9605,2.9612,2.9629,2.964,2.9647,2.9585,2.9577,2.957,2.9558,2.9643,2.9644,2.9708,2.9709,2.9709]},{"header":{"parameterUnit":"m.s-1","parameterCategory":1,"la1":30.2991,"la2":30.254,"lo1":-89.0895,"lo2":-89.0444,"dy":0.0017,"dx":0.0017,"nx":28,"ny":28,"refTime":"2025-06-08T03:00:00:Z","depth":0,"parameterNumber":3,"parameterNumberName":"V-component_of_WINDS"},"data":[0,0,0,0,0,0,0,0,0,0,0,0,0,0,0,0,0,0,0,0,0,0,0,0,0,0,0,0,0,0,0,0,0,0,0,0,0,0,0,0,0,0,0,0,0,0,0,0,0,0,0,0,0,0,0,0,0,0,2.9095,2.9096,0,2.9165,2.9166,2.9167,2.9165,2.9164,2.9163,2.9163,2.9229,2.9232,2.9234,0,0,0,0,0,0,0,0,0,0,0,0,0,2.8955,2.8958,2.9095,2.9096,2.9097,2.9165,2.9166,2.9167,2.9165,2.9164,2.9163,2.9162,2.9228,2.9231,2.9235,0,0,0,0,0,0,0,0,0,0,0,0,0,2.9019,2.8959,2.9095,2.9105,2.9106,2.9165,2.9166,2.9167,2.9166,2.9164,2.9163,2.9162,2.9227,2.9231,2.9235,2.9287,0,0,2.9247,2.9249,0,0,0,0,0,0,0,0,2.9016,2.9025,2.9102,2.9104,2.9106,2.9155,2.9141,2.9207,2.9166,2.9143,2.9163,2.9161,2.9205,2.9211,2.9227,2.929,2.9293,2.9247,2.925,2.9252,2.9253,0,0,0,0,0,0,0,2.9011,2.9022,2.9123,2.9104,2.9106,2.9104,2.9111,2.9153,2.9181,2.9145,2.9145,2.9154,2.9206,2.9223,2.9229,2.9294,2.9247,2.9251,2.9253,2.9255,2.94,2.9402,0,0,0,0,0,0,2.9006,2.9018,2.9121,2.9125,2.9057,2.9107,2.9116,2.9141,2.9181,2.9185,2.9155,2.9153,2.9217,2.9224,2.9231,2.9292,2.9252,2.9255,2.9258,2.9399,2.9401,2.9402,0,0,0,0,0,0,2.9003,2.9015,2.9118,2.9071,2.9084,2.9111,2.9139,2.9143,2.916,2.9188,2.9192,2.9167,2.9216,2.9225,2.9273,2.9295,2.9257,2.9261,2.9397,2.9399,2.9402,2.9417,0,0,0,0,0,0,2.8999,2.9014,2.9035,2.9072,2.9087,2.916,2.9141,2.9145,2.9167,2.9166,2.9201,2.9206,2.9216,2.9267,2.9277,2.9299,2.9264,2.9395,2.9398,2.9401,2.9414,2.9419,2.9423,0,0,0,0,0,2.8994,2.9036,2.9037,2.9049,2.9115,2.9162,2.917,2.9182,2.9169,2.919,2.9207,2.9204,2.9291,2.9272,2.9283,2.9307,2.9394,2.9397,2.9401,2.9412,2.9418,2.9423,0,0,0,0,0,0,2.9,2.9041,2.9042,2.9098,2.9127,2.9161,2.9188,2.9189,2.922,2.9217,2.923,2.9238,2.9285,2.9301,2.9279,2.9358,2.934,2.9346,2.9346,2.9352,2.9356,2.935,2.9267,0,0,0,0,0,2.9009,2.9045,2.9079,2.9125,2.9139,2.9161,2.9182,2.9189,2.9218,2.923,2.9251,2.9278,2.9311,2.9332,2.9365,2.9417,2.9423,2.9439,2.9443,2.9447,2.9451,2.9477,2.9484,2.9413,2.9413,2.9413,0,0,2.9026,2.9053,2.9075,2.9127,2.915,2.9185,2.9171,2.921,2.9235,2.9235,2.9281,2.9298,2.9328,2.9378,2.9401,2.9393,2.9472,2.9451,2.9454,2.9456,2.9481,2.9488,2.9494,2.9416,2.9415,2.9415,0,0,2.9074,2.91,2.914,2.9163,2.9198,2.9212,2.9222,2.9256,2.9267,2.9314,2.9314,2.9344,2.9401,2.9422,2.9441,2.9496,2.9493,2.9506,2.9528,2.9554,2.9559,2.9564,2.9581,2.9587,2.951,2.951,2.951,0,2.909,2.9145,2.916,2.9198,2.922,2.9223,2.9262,2.9283,2.9326,2.934,2.9331,2.9402,2.9423,2.9476,2.9489,2.9505,2.9514,2.9501,2.9558,2.9563,2.9567,2.9584,2.959,2.9511,2.9511,2.9511,2.9511,0,2.9162,2.92,2.9228,2.927,2.9295,2.9334,2.9352,2.9375,2.938,2.9394,2.944,2.9465,2.9502,2.9515,2.952,2.9568,2.9562,2.9555,2.9537,2.9575,2.959,2.9597,2.9513,2.9513,2.9512,2.9512,0,0,2.9216,2.9266,2.9275,2.9294,2.9332,2.936,2.9398,2.9435,2.9453,2.9482,2.9512,2.956,2.9554,2.9574,2.9582,2.9604,2.9643,2.9594,2.9595,2.96,2.9694,2.9697,2.9704,2.9642,2.9643,2.9644,2.9691,0,2.9266,2.9335,2.9348,2.9407,2.944,2.9443,2.9475,2.9501,2.9515,2.9544,2.9559,2.9592,2.9583,2.9595,2.9617,2.9633,2.9661,2.963,2.9667,2.9668,2.9657,2.9713,2.9717,2.976,2.9697,2.9698,2.9699,0,2.9334,2.9366,2.9428,2.946,2.9475,2.9504,2.9537,2.9566,2.9594,2.9602,2.9625,2.9629,2.9666,2.9648,2.9697,2.9675,2.9691,2.9701,2.9703,2.9705,2.9684,2.9714,2.9774,2.9779,2.9709,2.9708,2.9707,0,2.9364,2.9422,2.9466,2.9482,2.9522,2.9541,2.9558,2.9585,2.9606,2.9635,2.9647,2.968,2.9697,2.9721,2.9733,2.9719,2.978,2.9763,2.9785,2.9785,2.9796,2.9795,2.9857,2.9811,2.981,2.981,2.981,0,2.9418,2.9455,2.948,2.9507,2.9548,2.9562,2.9601,2.9618,2.9642,2.967,2.9675,2.97,2.9716,2.9743,2.9753,2.979,2.9798,2.9804,2.9806,2.9803,2.9802,2.9812,2.9808,2.9812,2.9812,2.9811,2.9811,0,2.9457,2.9476,2.9524,2.9557,2.9566,2.9594,2.9622,2.9647,2.9661,2.9696,2.9705,2.9727,2.9759,2.9774,2.9814,2.982,2.9862,2.9863,2.9853,2.9853,2.9873,2.987,2.9942,2.9951,2.9901,2.9901,2.9902,0,2.9489,2.9518,2.9554,2.9574,2.9592,2.9624,2.9645,2.966,2.9681,2.9714,2.9734,2.9768,2.9795,2.9846,2.9864,2.9894,2.9894,2.9917,2.9898,2.9893,2.9891,2.9888,2.989,2.9919,2.992,2.992,2.9921,0,2.9543,2.955,2.9581,2.9615,2.964,2.9667,2.9694,2.9709,2.9728,2.9751,2.9785,2.9806,2.9847,2.9878,2.9909,2.9924,2.9924,2.9927,2.9933,2.9929,2.9921,2.9923,2.986,2.9924,2.9924,2.9924,2.9923,2.9923,2.9578,2.9602,2.9632,2.9665,2.9687,2.9711,2.9735,2.9753,2.9782,2.9817,2.9824,2.9859,2.9884,2.9926,2.9942,2.9968,2.9963,2.9972,2.9974,2.9976,2.9976,2.9918,2.9974,2.9974,2.9974,2.9974,2.9974,0,2.9629,2.9648,2.9679,2.9716,2.9742,2.9742,2.9771,2.9792,2.9823,2.9848,2.9874,2.9912,2.9942,2.9963,2.9993,3.001,3.001,3.0017,3.0015,3.0017,2.9981,2.9971,3.0016,3.0016,3.0016,3.0016,3.0016,3.0016,2.9659,2.97,2.9711,2.9762,2.978,2.9816,2.9832,2.9853,2.9873,2.9915,2.9941,2.9954,2.9976,3.0008,3.0035,3.004,3.0049,3.0056,3.006,3.0025,3.002,3.0016,3.0007,3.0059,3.0059,3.0095,3.0095,3.0095]}]]